| time (UTC) | temp C | wind direction | speed KPH | gust KPH | rain 1hr cm | rain 24hr cm | rain mn cm | humidity % | barometer mb |
| 20260904171546 | 29 | 225 | 3.2 | 8.0 | 0.00 | 0.03 | 0.03 | 39 | 1014.4 |
| 20260904170547 | 29 | 265 | 6.4 | 12.9 | 0.00 | 0.03 | 0.03 | 38 | 1014.4 |
| 20260904165547 | 30 | 278 | 4.8 | 11.3 | 0.00 | 0.03 | 0.03 | 37 | 1014.4 |
| 20260904164547 | 30 | 230 | 4.8 | 11.3 | 0.00 | 0.03 | 0.03 | 36 | 1014.3 |
| 20260904163548 | 30 | 275 | 4.8 | 14.5 | 0.00 | 0.03 | 0.03 | 36 | 1014.3 |
| 20260904162547 | 30 | 298 | 9.7 | 35.4 | 0.00 | 0.03 | 0.03 | 36 | 1014.3 |
| 20260904161548 | 30 | 319 | 6.4 | 16.1 | 0.00 | 0.03 | 0.03 | 36 | 1014.4 |
| 20260904160549 | 30 | 303 | 8.0 | 20.9 | 0.00 | 0.03 | 0.03 | 36 | 1014.4 |
| 20260904155550 | 31 | 292 | 9.7 | 20.9 | 0.03 | 0.03 | 0.03 | 35 | 1014.4 |
| 20260904154609 | 31 | 317 | 6.4 | 14.5 | 0.03 | 0.03 | 0.03 | 34 | 1014.4 |
| 20260904153551 | 31 | 287 | 9.7 | 20.9 | 0.03 | 0.03 | 0.03 | 33 | 1014.4 |
| 20260904152551 | 32 | 244 | 6.4 | 14.5 | 0.03 | 0.03 | 0.03 | 32 | 1014.5 |
| 20260904151550 | 31 | 266 | 9.7 | 25.7 | 0.03 | 0.03 | 0.03 | 32 | 1014.5 |
| 20260904150551 | 31 | 296 | 6.4 | 33.8 | 0.03 | 0.03 | 0.03 | 35 | 1014.7 |
| 20260904145551 | 32 | 220 | 8.0 | 22.5 | 0.00 | 0.00 | 0.00 | 31 | 1014.8 |
| 20260904144612 | 32 | 211 | 4.8 | 16.1 | 0.00 | 0.00 | 0.00 | 33 | 1014.8 |
| 20260904143553 | 32 | 233 | 4.8 | 20.9 | 0.00 | 0.00 | 0.00 | 35 | 1014.9 |
| 20260904142553 | 32 | 177 | 4.8 | 11.3 | 0.00 | 0.00 | 0.00 | 37 | 1015.0 |
| 20260904141553 | 32 | 169 | 4.8 | 17.7 | 0.00 | 0.00 | 0.00 | 36 | 1015.1 |
| 20260904140554 | 32 | 210 | 4.8 | 11.3 | 0.00 | 0.00 | 0.00 | 36 | 1015.1 |
| 20260904135554 | 31 | 256 | 6.4 | 22.5 | 0.00 | 0.00 | 0.00 | 36 | 1015.2 |
| 20260904134554 | 32 | 206 | 6.4 | 16.1 | 0.00 | 0.00 | 0.00 | 36 | 1015.4 |
| 20260904133615 | 32 | 164 | 4.8 | 12.9 | 0.00 | 0.00 | 0.00 | 36 | 1015.5 |
| 20260904132555 | 31 | 202 | 4.8 | 12.9 | 0.00 | 0.00 | 0.00 | 36 | 1015.7 |
| 20260904131555 | 32 | 225 | 4.8 | 11.3 | 0.00 | 0.00 | 0.00 | 36 | 1015.9 |
| 20260904130556 | 31 | 248 | 4.8 | 16.1 | 0.00 | 0.00 | 0.00 | 37 | 1016.1 |
| 20260904125557 | 31 | 173 | 3.2 | 12.9 | 0.00 | 0.00 | 0.00 | 38 | 1016.3 |
| 20260904124557 | 31 | 179 | 4.8 | 12.9 | 0.00 | 0.00 | 0.00 | 40 | 1016.4 |
| 20260904123558 | 31 | 207 | 4.8 | 16.1 | 0.00 | 0.00 | 0.00 | 39 | 1016.6 |
| 20260904122558 | 31 | 178 | 3.2 | 11.3 | 0.00 | 0.00 | 0.00 | 40 | 1016.8 |
| 20260904121632 | 30 | 164 | 3.2 | 12.9 | 0.00 | 0.00 | 0.00 | 41 | 1016.9 |
| 20260904120558 | 31 | 104 | 3.2 | 11.3 | 0.00 | 0.00 | 0.00 | 40 | 1017.1 |
| 20260904115600 | 30 | 208 | 6.4 | 14.5 | 0.00 | 0.00 | 0.00 | 42 | 1017.3 |
| 20260904114619 | 29 | 216 | 8.0 | 22.5 | 0.00 | 0.00 | 0.00 | 42 | 1017.5 |
| 20260904113620 | 29 | 196 | 4.8 | 11.3 | 0.00 | 0.00 | 0.00 | 43 | 1017.7 |
| 20260904112601 | 29 | 142 | 4.8 | 11.3 | 0.00 | 0.00 | 0.00 | 44 | 1017.8 |
| 20260904111601 | 29 | 186 | 3.2 | 9.7 | 0.00 | 0.00 | 0.00 | 43 | 1018.1 |
| 20260904110601 | 28 | 157 | 4.8 | 14.5 | 0.00 | 0.00 | 0.00 | 44 | 1018.2 |
| 20260904105603 | 28 | 253 | 3.2 | 9.7 | 0.00 | 0.00 | 0.00 | 46 | 1018.4 |
| 20260904104602 | 28 | 178 | 4.8 | 12.9 | 0.00 | 0.00 | 0.00 | 45 | 1018.7 |
| 20260904103603 | 28 | 157 | 4.8 | 12.9 | 0.00 | 0.00 | 0.00 | 45 | 1018.8 |
| 20260904102603 | 28 | 208 | 4.8 | 11.3 | 0.00 | 0.00 | 0.00 | 45 | 1019.0 |
| 20260904101603 | 27 | 188 | 4.8 | 12.9 | 0.00 | 0.00 | 0.00 | 47 | 1019.2 |
| 20260904100603 | 27 | 187 | 3.2 | 11.3 | 0.00 | 0.00 | 0.00 | 47 | 1019.3 |
| 20260904095604 | 27 | 128 | 4.8 | 14.5 | 0.00 | 0.00 | 0.00 | 47 | 1019.4 |
| 20260904094605 | 26 | 229 | 6.4 | 12.9 | 0.00 | 0.00 | 0.00 | 48 | 1019.7 |
| 20260904093604 | 26 | 201 | 1.6 | 16.1 | 0.00 | 0.00 | 0.00 | 49 | 1019.9 |
| 20260904092626 | 27 | 190 | 3.2 | 9.7 | 0.00 | 0.00 | 0.00 | 48 | 1020.1 |
| 20260904091605 | 26 | 172 | 3.2 | 9.7 | 0.00 | 0.00 | 0.00 | 50 | 1020.2 |
| 20260904090626 | 26 | 139 | 3.2 | 9.7 | 0.00 | 0.00 | 0.00 | 49 | 1020.3 |
| 20260904085606 | 26 | 146 | 3.2 | 9.7 | 0.00 | 0.00 | 0.00 | 51 | 1020.4 |
| 20260904084607 | 25 | 196 | 3.2 | 8.0 | 0.00 | 0.00 | 0.00 | 53 | 1020.4 |
| 20260904083607 | 25 | 216 | 3.2 | 9.7 | 0.00 | 0.00 | 0.00 | 52 | 1020.5 |
| 20260904082608 | 25 | 132 | 1.6 | 11.3 | 0.00 | 0.00 | 0.00 | 53 | 1020.5 |
| 20260904081608 | 24 | 213 | 4.8 | 12.9 | 0.00 | 0.00 | 0.00 | 54 | 1020.5 |
| 20260904080608 | 24 | 211 | 4.8 | 11.3 | 0.00 | 0.00 | 0.00 | 54 | 1020.6 |
| 20260904075610 | 24 | 183 | 3.2 | 11.3 | 0.00 | 0.00 | 0.00 | 55 | 1020.5 |
| 20260904074629 | 23 | 216 | 3.2 | 9.7 | 0.00 | 0.00 | 0.00 | 57 | 1020.7 |
| 20260904073558 | 23 | 126 | 3.2 | 11.3 | 0.00 | 0.00 | 0.00 | 58 | 1020.6 |
| 20260904072538 | 23 | 175 | 3.2 | 11.3 | 0.00 | 0.00 | 0.00 | 59 | 1020.6 |
| 20260904071539 | 23 | 173 | 3.2 | 8.0 | 0.00 | 0.00 | 0.00 | 58 | 1020.6 |
| 20260904070539 | 22 | 117 | 1.6 | 4.8 | 0.00 | 0.00 | 0.00 | 60 | 1020.7 |
| 20260904065539 | 23 | 109 | 1.6 | 3.2 | 0.00 | 0.00 | 0.00 | 60 | 1020.7 |
| 20260904064541 | 23 | 138 | 1.6 | 4.8 | 0.00 | 0.00 | 0.00 | 59 | 1020.7 |
| 20260904063543 | 22 | 134 | 1.6 | 4.8 | 0.00 | 0.00 | 0.00 | 61 | 1020.7 |
| 20260904062541 | 22 | 114 | 0.0 | 3.2 | 0.00 | 0.00 | 0.00 | 59 | 1020.7 |
| 20260904061541 | 21 | 156 | 3.2 | 4.8 | 0.00 | 0.00 | 0.00 | 62 | 1020.9 |
| 20260904060541 | 21 | 116 | 1.6 | 4.8 | 0.00 | 0.00 | 0.00 | 63 | 1020.9 |
| 20260904055542 | 20 | 102 | 0.0 | 4.8 | 0.00 | 0.00 | 0.00 | 64 | 1020.8 |
| 20260904054542 | 20 | 189 | 3.2 | 8.0 | 0.00 | 0.00 | 0.00 | 63 | 1020.9 |
| 20260904053542 | 20 | 154 | 1.6 | 4.8 | 0.00 | 0.00 | 0.00 | 64 | 1020.8 |
| 20260904052543 | 20 | 165 | 1.6 | 4.8 | 0.00 | 0.00 | 0.00 | 64 | 1020.9 |
| 20260904051544 | 19 | 132 | 1.6 | 4.8 | 0.00 | 0.00 | 0.00 | 66 | 1020.9 |
| 20260904050604 | 18 | 102 | 0.0 | 3.2 | 0.00 | 0.00 | 0.00 | 68 | 1020.8 |
| 20260904045544 | 18 | 109 | 0.0 | 3.2 | 0.00 | 0.00 | 0.00 | 67 | 1020.7 |
| 20260904044544 | 19 | 141 | 0.0 | 1.6 | 0.00 | 0.00 | 0.00 | 66 | 1020.9 |
| 20260904043545 | 19 | 157 | 1.6 | 3.2 | 0.00 | 0.00 | 0.00 | 65 | 1020.8 |
| 20260904042605 | 19 | 113 | 0.0 | 4.8 | 0.00 | 0.00 | 0.00 | 66 | 1020.7 |
| 20260904041545 | 19 | 112 | 0.0 | 1.6 | 0.00 | 0.00 | 0.00 | 65 | 1020.8 |
| 20260904040606 | 19 | 102 | 0.0 | 1.6 | 0.00 | 0.00 | 0.00 | 65 | 1021.0 |
| 20260904035547 | 19 | 102 | 0.0 | 1.6 | 0.00 | 0.00 | 0.00 | 64 | 1021.0 |
| 20260904034607 | 19 | 98 | 0.0 | 3.2 | 0.00 | 0.00 | 0.00 | 64 | 1021.1 |
| 20260904033548 | 19 | 96 | 0.0 | 1.6 | 0.00 | 0.00 | 0.00 | 64 | 1020.9 |
| 20260904032548 | 20 | 125 | 0.0 | 3.2 | 0.00 | 0.00 | 0.00 | 64 | 1021.1 |
| 20260904031550 | 20 | 150 | 1.6 | 4.8 | 0.00 | 0.00 | 0.00 | 63 | 1021.0 |
| 20260904030550 | 20 | 119 | 0.0 | 4.8 | 0.00 | 0.00 | 0.00 | 63 | 1021.0 |
| 20260904025549 | 20 | 187 | 1.6 | 8.0 | 0.00 | 0.00 | 0.00 | 64 | 1021.1 |
| 20260904024550 | 20 | 80 | 1.6 | 4.8 | 0.00 | 0.00 | 0.00 | 63 | 1021.2 |
| 20260904023550 | 20 | 151 | 1.6 | 4.8 | 0.00 | 0.00 | 0.00 | 62 | 1021.3 |
| 20260904022551 | 20 | 195 | 1.6 | 8.0 | 0.00 | 0.00 | 0.00 | 62 | 1021.2 |
| 20260904021632 | 20 | 177 | 1.6 | 4.8 | 0.00 | 0.00 | 0.00 | 62 | 1021.2 |
| 20260904020551 | 20 | 160 | 3.2 | 8.0 | 0.00 | 0.00 | 0.00 | 62 | 1021.3 |
| 20260904015552 | 20 | 139 | 1.6 | 4.8 | 0.00 | 0.00 | 0.00 | 62 | 1021.4 |
| 20260904014552 | 20 | 135 | 1.6 | 8.0 | 0.00 | 0.00 | 0.00 | 62 | 1021.4 |
| 20260904013552 | 20 | 141 | 1.6 | 4.8 | 0.00 | 0.00 | 0.00 | 63 | 1021.4 |
| 20260904012553 | 20 | 144 | 1.6 | 4.8 | 0.00 | 0.00 | 0.00 | 65 | 1021.5 |
| 20260904011554 | 20 | 0.0 | 0.0 | 0.00 | 0.00 | 0.00 | 66 | 1021.6 | |
| 20260904010554 | 20 | 117 | 0.0 | 4.8 | 0.00 | 0.00 | 0.00 | 65 | 1021.5 |
| 20260904005554 | 20 | 139 | 0.0 | 3.2 | 0.00 | 0.00 | 0.00 | 64 | 1021.6 |
| 20260904004554 | 20 | 138 | 1.6 | 3.2 | 0.00 | 0.00 | 0.00 | 64 | 1021.7 |
| 20260904003556 | 20 | 122 | 0.0 | 3.2 | 0.00 | 0.00 | 0.00 | 66 | 1021.6 |
| 20260904002557 | 20 | 107 | 1.6 | 3.2 | 0.00 | 0.00 | 0.00 | 66 | 1021.6 |
| 20260904001556 | 20 | 100 | 0.0 | 1.6 | 0.00 | 0.00 | 0.00 | 65 | 1021.8 |
| 20260904000556 | 20 | 118 | 1.6 | 4.8 | 0.00 | 0.00 | 0.00 | 66 | 1021.8 |
| 20260903235557 | 20 | 147 | 0.0 | 3.2 | 0.00 | 0.00 | 0.00 | 65 | 1022.0 |
| 20260903234637 | 20 | 127 | 1.6 | 4.8 | 0.00 | 0.00 | 0.00 | 65 | 1022.0 |
| 20260903233557 | 20 | 145 | 1.6 | 4.8 | 0.00 | 0.00 | 0.00 | 66 | 1022.0 |
| 20260903232558 | 20 | 168 | 1.6 | 4.8 | 0.00 | 0.00 | 0.00 | 67 | 1022.0 |
| 20260903231558 | 20 | 125 | 1.6 | 3.2 | 0.00 | 0.00 | 0.00 | 69 | 1022.1 |
| 20260903230559 | 20 | 118 | 0.0 | 1.6 | 0.00 | 0.00 | 0.00 | 68 | 1022.2 |
| 20260903225639 | 20 | 128 | 1.6 | 3.2 | 0.00 | 0.00 | 0.00 | 65 | 1022.2 |
| 20260903224600 | 20 | 144 | 1.6 | 4.8 | 0.00 | 0.00 | 0.00 | 65 | 1022.4 |
| 20260903223621 | 20 | 100 | 0.0 | 4.8 | 0.00 | 0.00 | 0.00 | 65 | 1022.4 |
| 20260903222621 | 21 | 155 | 1.6 | 8.0 | 0.00 | 0.00 | 0.00 | 65 | 1022.4 |
| 20260903221621 | 20 | 151 | 0.0 | 3.2 | 0.00 | 0.00 | 0.00 | 64 | 1022.4 |
| 20260903220601 | 21 | 122 | 1.6 | 3.2 | 0.00 | 0.00 | 0.00 | 64 | 1022.4 |
| 20260903215602 | 21 | 220 | 1.6 | 8.0 | 0.00 | 0.00 | 0.00 | 64 | 1022.3 |
| 20260903214603 | 21 | 153 | 1.6 | 4.8 | 0.00 | 0.00 | 0.00 | 63 | 1022.1 |
| 20260903213602 | 21 | 174 | 1.6 | 4.8 | 0.00 | 0.00 | 0.00 | 63 | 1021.9 |
| 20260903212603 | 21 | 117 | 0.0 | 3.2 | 0.00 | 0.00 | 0.00 | 64 | 1021.9 |
| 20260903211603 | 21 | 226 | 1.6 | 4.8 | 0.00 | 0.00 | 0.00 | 64 | 1021.8 |
| 20260903210604 | 20 | 131 | 1.6 | 8.0 | 0.00 | 0.00 | 0.00 | 64 | 1022.1 |
| 20260903205605 | 20 | 145 | 0.0 | 3.2 | 0.00 | 0.00 | 0.00 | 65 | 1022.1 |
| 20260903204620 | 20 | 102 | 1.6 | 3.2 | 0.00 | 0.00 | 0.00 | 65 | 1022.1 |
| 20260903203558 | 20 | 105 | 0.0 | 3.2 | 0.00 | 0.00 | 0.00 | 65 | 1022.0 |
| 20260903202538 | 20 | 102 | 0.0 | 1.6 | 0.00 | 0.00 | 0.00 | 65 | 1022.0 |
| 20260903201538 | 20 | 157 | 0.0 | 3.2 | 0.00 | 0.00 | 0.00 | 66 | 1021.8 |
| 20260903200538 | 20 | 74 | 0.0 | 1.6 | 0.00 | 0.00 | 0.00 | 66 | 1021.8 |
| 20260903195539 | 21 | 0.0 | 0.0 | 0.00 | 0.00 | 0.00 | 63 | 1021.7 | |
| 20260903194540 | 21 | 112 | 1.6 | 3.2 | 0.00 | 0.00 | 0.00 | 63 | 1021.5 |
| 20260903193540 | 21 | 98 | 0.0 | 3.2 | 0.00 | 0.00 | 0.00 | 63 | 1021.5 |
| 20260903192540 | 20 | 117 | 0.0 | 3.2 | 0.00 | 0.00 | 0.00 | 65 | 1021.5 |
| 20260903191541 | 20 | 108 | 0.0 | 1.6 | 0.00 | 0.00 | 0.00 | 66 | 1021.5 |
| 20260903190541 | 21 | 121 | 0.0 | 3.2 | 0.00 | 0.00 | 0.00 | 65 | 1021.4 |
| 20260903185542 | 21 | 0.0 | 0.0 | 0.00 | 0.00 | 0.00 | 63 | 1021.3 | |
| 20260903184541 | 21 | 122 | 0.0 | 3.2 | 0.00 | 0.00 | 0.00 | 61 | 1021.3 |
| 20260903183622 | 21 | 111 | 0.0 | 1.6 | 0.00 | 0.00 | 0.00 | 62 | 1021.2 |
| 20260903182542 | 21 | 0.0 | 0.0 | 0.00 | 0.00 | 0.00 | 63 | 1021.1 | |
| 20260903181544 | 22 | 110 | 0.0 | 1.6 | 0.00 | 0.00 | 0.00 | 61 | 1021.1 |
| 20260903180543 | 22 | 123 | 0.0 | 1.6 | 0.00 | 0.00 | 0.00 | 59 | 1021.0 |
| 20260903175544 | 22 | 188 | 0.0 | 3.2 | 0.00 | 0.00 | 0.00 | 60 | 1020.9 |
| 20260903174544 | 22 | 0.0 | 0.0 | 0.00 | 0.00 | 0.00 | 59 | 1020.9 | |
| 20260903173544 | 22 | 111 | 0.0 | 4.8 | 0.00 | 0.00 | 0.00 | 58 | 1020.9 |
| 20260903172545 | 22 | 161 | 1.6 | 3.2 | 0.00 | 0.00 | 0.00 | 57 | 1020.8 |